カタログに戻る

THORAD AGENA D DEB

運用中SSO
NORAD 4603·DEBRIS·🇺🇸 United States

打ち上げ Apr 8, 1970 から Vandenberg Space Force Base

Loading…

次のパス (今後24時間)

TLE

最新Source: Space-Track

元期: Sep 14, 2026, 13:04 UTC

1 04603U 70025F   26257.54482907  .00000709  00000-0  63448-3 0  9992
2 04603  99.5084   4.6989 0019719  16.4085  48.0980 13.87928259805205

AllMySatでTHORAD AGENA D DEBをリアルタイム追跡

Download on the App Store